Regional Weather Roundup
Issued by NWS

Home | Current Version | Previous Version | Text Only | Print | Product List | Glossary On
Versions: 1 2 3 4 5 6 7 8 9 10 11 12 13 14 15 16 17 18 19 20 21 22 23 24 25 26 27 28 29 30 31 32 33 34 35 36 37 38 39 40 41 42 43 44 45 46 47 48 49 50
660
ASUS43 KOAX 280202
RWRNE

WEATHER ROUNDUP FOR NEBRASKA
NATIONAL WEATHER SERVICE OMAHA NE
900 PM CDT SAT MAY 27 2017

NOTES: SATELLITE DATA IS BEING USED TO AUGMENT CLOUD COVER ABOVE
       12000 FEET.
       "FAIR" INDICATES FEW OR NO CLOUDS BELOW 12,000 FEET WITH NO
       SIGNIFICANT WEATHER AND/OR OBSTRUCTIONS TO VISIBILITY.

  * THESE STATIONS DO NOT REPORT WEATHER SUCH AS RAIN...SNOW OR FOG.

NEZ001>004-019>022-054>056-280300-
NEBRASKA PANHANDLE

CITY           SKY/WX    TMP DP  RH WIND       PRES   REMARKS
SCOTTSBLUFF    CLEAR     59  44  57 S3        30.11R
ALLIANCE       CLEAR     57  45  64 CALM      30.08S
CHADRON        CLEAR     58  46  64 SW8       30.05R
GORDON         FAIR      59  43  55 W8        30.04S
KIMBALL        CLEAR     56  40  55 N5        30.16R
SIDNEY         CLEAR     51  44  77 NW6       30.13R
$$

NEZ057>060-069>072-079>082-280300-
SOUTHWEST NEBRASKA

CITY           SKY/WX    TMP DP  RH WIND       PRES   REMARKS
NORTH PLATTE   CLOUDY    59  52  77 W5        30.04R
IMPERIAL       CLEAR     57  52  83 CALM      30.07R
LEXINGTON      PTCLDY    59  51  76 NW9       30.03R
MCCOOK         PTCLDY    61  51  70 NW8       30.05R
OGALLALA       CLEAR     58  48  69 NW7       30.07S
$$

NEZ005>010-023>029-035>040-094-280300-
NORTH CENTRAL NEBRASKA

CITY           SKY/WX    TMP DP  RH WIND       PRES   REMARKS
VALENTINE      LGT RAIN  63  43  48 NW15G35   29.99R
AINSWORTH      CLEAR     58  49  71 SW6       29.99R
BROKEN BOW     PTCLDY    58  52  80 W3        30.01S
O`NEILL        MOCLDY    60  52  76 CALM      29.97S
ORD            MOCLDY    57  51  80 S5        29.98S
$$

NEZ041-046>049-061>064-073>077-083>087-280300-
SOUTH CENTRAL NEBRASKA

CITY           SKY/WX    TMP DP  RH WIND       PRES   REMARKS
GRAND ISLAND   LGT RAIN  62  54  74 N8        29.98R
AURORA         CLOUDY    65  51  62 N13       29.97R
HASTINGS       MOCLDY    64  52  64 N15       29.98R
HEBRON         MOCLDY    69  54  57 N9        29.92R
HOLDREGE       CLEAR     61  52  70 N9        30.01R
KEARNEY *      CLOUDY    63  50  63 N9        30.00F
YORK           CLOUDY    66  50  55 N8        29.95S
$$

NEZ011>018-030>034-042>045-280300-
NORTHEAST NEBRASKA

CITY           SKY/WX    TMP DP  RH WIND       PRES   REMARKS
NORFOLK        CLOUDY    60  50  69 NW6       29.95R
ALBION         CLOUDY    60  51  72 NW6       29.98S
BLAIR          CLOUDY    64  55  71 CALM      29.91S
FREMONT        CLOUDY    68  53  60 CALM      29.92S
TEKAMAH        PTCLDY    67  50  54 NW5       29.91R
WAYNE          LGT RAIN  64  53  68 NW8       29.94S
$$

NEZ050>053-065>068-078-088>093-280300-
SOUTHEAST NEBRASKA

CITY           SKY/WX    TMP DP  RH WIND       PRES   REMARKS
LINCOLN        CLEAR     65  58  78 NE5       29.92R
OMAHA EPPLEY   CLOUDY    66  56  70 N5        29.89S
BEATRICE       PTCLDY    66  59  77 NE6       29.90S
FALLS CITY     PTCLDY    67  59  75 N7        29.86R
NEBRASKA CITY  CLEAR     65  57  75 N6        29.89R
PLATTSMOUTH    LGT RAIN  66  57  73 NW3       29.90R
$$

NEZ044-045-051>053-067-280300-
OMAHA AREA

CITY           SKY/WX    TMP DP  RH WIND       PRES   REMARKS
OMAHA EPPLEY   CLOUDY    66  56  70 N5        29.89S
BLAIR          CLOUDY    64  55  71 CALM      29.91S
FREMONT        CLOUDY    68  53  60 CALM      29.92S
MILLARD        CLOUDY    69  55  61 CALM      29.90F
OFFUTT AFB     CLOUDY    66  54  66 NW5       29.89R
PLATTSMOUTH    LGT RAIN  66  57  73 NW3       29.90R
WAHOO          CLOUDY    66  55  66 CALM      29.91F
$$




USA.gov is the U.S. government's official web portal to all federal, state and local government web resources and services.